This is the latest recevied weather packets stored in our database for station/object KD0RII. If no packets are shown the sender has not sent any weather packets the latest 10 day(s).
| Time | Temp. | Humidity | Pressure | Rain* | Wind** | Luminosity | Snow |
|---|---|---|---|---|---|---|---|
| 1777556922 | 10° C | 95% | 1021.1 hPa | 0 mm | - | 177 W/m² | - |
| 1777556618 | 10° C | 95% | 1021.1 hPa | 0 mm | - | 124 W/m² | - |
| 1777556312 | 10° C | 95% | 1021.2 hPa | 0 mm | - | 66 W/m² | - |
| 1777556010 | 10° C | 95% | 1021.1 hPa | 0 mm | - | 109 W/m² | - |
| 1777555710 | 9.44° C | 95% | 1021.2 hPa | 0 mm | - | 82 W/m² | - |
| 1777555407 | 8.89° C | 95% | 1021.1 hPa | 0 mm | - | 87 W/m² | - |
| 1777555103 | 8.33° C | 95% | 1021.1 hPa | 0 mm | - | 64 W/m² | - |
| 1777554801 | 7.78° C | 95% | 1021.1 hPa | 0 mm | - | 63 W/m² | - |
| 1777554497 | 7.22° C | 95% | 1021.1 hPa | 0 mm | - | 65 W/m² | - |
| 1777554194 | 6.67° C | 95% | 1020.8 hPa | 0 mm | - | 52 W/m² | - |
| 1777553891 | 6.67° C | 95% | 1020.8 hPa | 0 mm | - | 55 W/m² | - |
| 1777553587 | 6.11° C | 95% | 1020.7 hPa | 0 mm | - | 46 W/m² | - |
| 1777553283 | 5.56° C | 95% | 1020.6 hPa | 0 mm | - | 46 W/m² | - |
| 1777552979 | 5° C | 95% | 1020.7 hPa | 0 mm | - | 42 W/m² | - |
| 1777552673 | 4.44° C | 95% | 1020.4 hPa | 0 mm | - | 39 W/m² | - |
| 1777552371 | 4.44° C | 95% | 1020.6 hPa | 0 mm | - | 38 W/m² | - |
| 1777552067 | 3.89° C | 95% | 1020.8 hPa | 0 mm | - | 37 W/m² | - |
| 1777551764 | 3.89° C | 94% | 1020.7 hPa | 0 mm | - | 33 W/m² | - |
| 1777551462 | 3.33° C | 95% | 1020.5 hPa | 0 mm | - | 28 W/m² | - |
| 1777551158 | 3.33° C | 94% | 1020.6 hPa | 0 mm | - | 21 W/m² | - |
| 1777550856 | 3.33° C | 94% | 1020.6 hPa | 0 mm | - | 18 W/m² | - |
| 1777550552 | 3.33° C | 94% | 1020.6 hPa | 0 mm | - | 20 W/m² | - |
| 1777550248 | 3.33° C | 94% | 1020.5 hPa | 0 mm | - | 19 W/m² | - |
| 1777549945 | 2.78° C | 94% | 1020.5 hPa | 0 mm | - | 16 W/m² | - |
| 1777549641 | 2.78° C | 94% | 1020.3 hPa | 0 mm | - | 13 W/m² | - |
* Rain latest hour (hover to see other rain measurements)
** Current wind speed in m/s (hover to see current wind gust speed)